Rangeley, Maine, United States (04970)
Lat: 44.97N, Lon: 70.64W
Wx Zone: MEZ008
Local Info
Past Weather Observations for Today

NOTE: This archive is for the closest National Weather Service station to Rangeley. Information may differ from the station used for current weather conditions.

Click here for Long-term Archive

Time Weather Temperature Dewpoint Humidity Pressure Winds Precip Visibility
18:52
Partly Cloudy
68°F / 20°C 64°F / 18°C 88% 29.83 in
(1010 mb)
Calm -
17:52
Overcast
72°F / 22°C 63°F / 17°C 73% 29.83 in
(1010 mb)
Calm -
16:52
Clear
82°F / 28°C 57°F / 14°C 42% 29.8 in
(1009 mb)
Calm -
15:52
Partly Cloudy
84°F / 29°C 57°F / 14°C 40% 29.8 in
(1009 mb)
Calm -
14:52
Partly Cloudy
84°F / 29°C 57°F / 14°C 40% 29.83 in
(1010 mb)
Calm -
13:52
Clear
84°F / 29°C 57°F / 14°C 40% 29.83 in
(1010 mb)
Calm -
12:52
Clear
81°F / 27°C 57°F / 14°C 45% 29.86 in
(1011 mb)
Calm -
11:52
Partly Cloudy
79°F / 26°C 61°F / 16°C 54% 29.89 in
(1012 mb)
Calm -
11:37
Mostly Cloudy
77°F / 25°C 63°F / 17°C 61% 29.92 in
(1013 mb)
Calm -
10:52
Overcast
73°F / 23°C 63°F / 17°C 69% 29.92 in
(1013 mb)
Calm -
10:30
Overcast
73°F / 23°C 63°F / 17°C 69% 29.95 in
(1014 mb)
Calm -
10:01
Mostly Cloudy
72°F / 22°C 61°F / 16°C 69% 29.95 in
(1014 mb)
Calm -
09:52
Mostly Cloudy
72°F / 22°C 61°F / 16°C 69% 29.95 in
(1014 mb)
Calm -
08:52
Overcast
63°F / 17°C 57°F / 14°C 83% 29.98 in
(1015 mb)
Calm -
06:52
Fair
N/A N/A N/A 29.98 in
(1015 mb)
Calm -
05:52
Overcast
55°F / 13°C N/A N/A 30.01 in
(1016 mb)
Calm - 10SM
05:48
Overcast
55°F / 13°C N/A N/A 30.01 in
(1016 mb)
Calm - 10SM
04:52
Overcast
55°F / 13°C N/A N/A 30.01 in
(1016 mb)
Calm - 10SM
03:52
Overcast
55°F / 13°C N/A N/A 30.01 in
(1016 mb)
Calm - 10SM
03:22
Overcast
55°F / 13°C N/A N/A 30.01 in
(1016 mb)
Calm - 10SM
03:03
Mostly Cloudy
55°F / 13°C N/A N/A 30.01 in
(1016 mb)
Calm - 10SM
02:52
Partly Cloudy
55°F / 13°C N/A N/A 30.01 in
(1016 mb)
Calm - 10SM
02:33
Partly Cloudy
57°F / 14°C N/A N/A 30.01 in
(1016 mb)
Calm - 10SM
01:52
Mostly Cloudy
57°F / 14°C N/A N/A 30.04 in
(1017 mb)
Calm - 10SM
00:52
Partly Cloudy
57°F / 14°C N/A N/A 30.04 in
(1017 mb)
Calm - 10SM
Time Weather Temperature Dewpoint Humidity Pressure Winds Precip Visibility


Weather for websites

WeatherForYou.com, LLC is not responsible for any damages or problems caused by this service. Current weather conditions are obtained from the closest station including government and personal stations which may have varying degrees of accuracy. Weather forecasts are derived from the NOAA NDFD. Like all things, this site belongs to Jesus Christ... He just trusts us to maintain it. If you have any questions or comments email webmaster@weatherforyou.com

Copyright © 2016, WeatherForYou.com LLC. All rights reserved.